Overview Statistics Trail Chart Weather Telemetry Raw packets
 

This is the latest recevied weather packets stored in our database for station/object I0UVN-10. If no packets are shown the sender has not sent any weather packets the latest 10 day(s).

<< 28 29 30 31 32 33 34 >>
Time Temp. Humidity Pressure Rain* Wind** Luminosity Snow
1787830636 30° C 52% 1022.3 hPa - - - -
1787829432 30.56° C 52% 1022.4 hPa - - - -
1787828232 30.56° C 56% 1022.1 hPa - - - -
1787827031 30.56° C 56% 1021.9 hPa - - - -
1787825830 30.56° C 49% 1021.6 hPa - - - -
1787824629 30.56° C 48% 1021.7 hPa - - - -
1787823429 30.56° C 49% 1021.8 hPa - - - -
1787822227 30.56° C 49% 1021.8 hPa - - - -
1787821027 30° C 52% 1022.1 hPa - - - -
1787819827 30° C 54% 1022 hPa - - - -
1787818627 29.44° C 56% 1021.9 hPa - - - -
1787817426 29.44° C 57% 1022 hPa - - - -
1787816226 28.89° C 58% 1021.9 hPa - - - -
1787815026 28.89° C 59% 1021.9 hPa - - - -
1787813826 28.89° C 57% 1021.9 hPa - - - -
1787812625 28.33° C 58% 1022.2 hPa - - - -
1787811425 27.78° C 61% 1022.2 hPa - - - -
1787810225 27.78° C 61% 1022 hPa - - - -
1787809025 27.22° C 61% 1021.8 hPa - - - -
1787807825 27.22° C 62% 1021.5 hPa - - - -
1787806625 27.22° C 62% 1021.5 hPa - - - -
1787805457 27.78° C 61% 1022 hPa - - - -
1787805425 27.78° C 61% 1022 hPa - - - -
1787804225 27.78° C 62% 1022.4 hPa - - - -
1787803024 27.78° C 60% 1022.7 hPa - - - -

* Rain since midnight (hover to see other rain measurements)
** Current wind speed in m/s (hover to see current wind gust speed)